This is the latest recevied weather packets stored in our database for station/object K5NWZ. If no packets are shown the sender has not sent any weather packets the latest 10 day(s).
| Time | Temp. | Humidity | Pressure | Rain* | Wind** | Luminosity | Snow |
|---|---|---|---|---|---|---|---|
| 1777569537 | 7.78° C | 53% | 1030.4 hPa | 0 mm | - | 195 W/m² | - |
| 1777569233 | 7.78° C | 52% | 1030.5 hPa | 0 mm | - | 181 W/m² | - |
| 1777568930 | 8.33° C | 52% | 1030.5 hPa | 0 mm | - | 171 W/m² | - |
| 1777568626 | 8.33° C | 51% | 1030.4 hPa | 0 mm | - | 184 W/m² | - |
| 1777568324 | 8.89° C | 50% | 1030.5 hPa | 0 mm | - | 251 W/m² | - |
| 1777568020 | 8.89° C | 49% | 1030.3 hPa | 0 mm | - | 387 W/m² | - |
| 1777567717 | 8.89° C | 48% | 1030.4 hPa | 0 mm | - | 438 W/m² | - |
| 1777567414 | 7.78° C | 50% | 1030.5 hPa | 0 mm | - | 382 W/m² | - |
| 1777567112 | 8.33° C | 50% | 1030.5 hPa | 0 mm | - | 324 W/m² | - |
| 1777566809 | 7.78° C | 51% | 1030.5 hPa | 0 mm | - | 289 W/m² | - |
| 1777566507 | 7.78° C | 52% | 1030.6 hPa | 0 mm | - | 268 W/m² | - |
| 1777566205 | 7.78° C | 51% | 1030.5 hPa | 0 mm | - | 240 W/m² | - |
| 1777565901 | 7.78° C | 53% | 1030.6 hPa | 0 mm | - | 174 W/m² | - |
| 1777565597 | 7.22° C | 53% | 1030.4 hPa | 0 mm | - | 172 W/m² | - |
| 1777565293 | 7.22° C | 53% | 1030.6 hPa | 0 mm | - | 193 W/m² | - |
| 1777564989 | 7.22° C | 52% | 1030.8 hPa | 0 mm | - | 187 W/m² | - |
| 1777564685 | 7.22° C | 53% | 1030.8 hPa | 0 mm | - | 174 W/m² | - |
| 1777564380 | 7.22° C | 54% | 1030.5 hPa | 0 mm | - | 151 W/m² | - |
| 1777564076 | 7.22° C | 54% | 1030.4 hPa | 0 mm | - | 151 W/m² | - |
| 1777563773 | 7.22° C | 53% | 1030.5 hPa | 0 mm | - | 144 W/m² | - |
| 1777563469 | 7.22° C | 53% | 1030.6 hPa | 0 mm | - | 128 W/m² | - |
| 1777563168 | 6.67° C | 54% | 1030.4 hPa | 0 mm | - | 115 W/m² | - |
| 1777562865 | 6.67° C | 54% | 1030.4 hPa | 0 mm | - | 115 W/m² | - |
| 1777562562 | 7.22° C | 54% | 1030.5 hPa | 0 mm | - | 107 W/m² | - |
| 1777562260 | 7.22° C | 54% | 1030.6 hPa | 0 mm | - | 128 W/m² | - |
* Rain latest hour (hover to see other rain measurements)
** Current wind speed in m/s (hover to see current wind gust speed)